Weather History for CYHE - May, 2013

Change the Weather History Date:

Saturday, May 4, 2013

  Actual Average Record
Temperature  
Mean Temperature 65 °F -  
Max Temperature 83 °F 66 °F 83 °F (2013)
Min Temperature 47 °F 47 °F 39 °F (1999)
Growing Degree Days 15 (Base 50)    
Moisture  
Dew Point 40 °F    
Average Humidity 44    
Maximum Humidity 76    
Minimum Humidity 10    
Precipitation  
Precipitation 0.00 in 0.12 in - ()
Sea Level Pressure  
Sea Level Pressure 30.21 in    
Wind  
Wind Speed 7 mph ()    
Max Wind Speed 13 mph    
Max Gust Speed -    
Visibility 8.9 miles    
Events      
Averages and records for this station are not official NWS values.
T = Trace of Precipitation, MM = Missing Value Source: Averaged Metar Reports

Daily Weather History Graph

Daily Weather History Graph

Search for Another Location

Airport or City:

Trip Planner

Search our weather history database for the weather conditions in past years. The results will help you decide how hot, cold, wet, or windy it might be!

Date:

Astronomy

May. 04, 2013 Rise Set
Actual Time 5:38 AM PDT 8:27 PM PDT
Civil Twilight 5:01 AM PDT 9:04 PM PDT
Nautical Twilight 4:14 AM PDT 9:51 PM PDT
Astronomical Twilight 3:18 AM PDT 10:49 PM PDT
Moon 3:08 AM PDT (5/4) 3:05 PM PDT (5/4)
Length of Visible Light 16h 02m
Length of Day
14h 49m
Waning Crescent, 26% of the Moon is Illuminated
May 4
Waning Crescent
May 9
New
May 17
First Quarter
May 24
Full
May 31
Last Quarter

Hourly Weather History & Observations

Time (PDT) Temp. Dew Point Humidity Pressure Visibility Wind Dir Wind Speed Gust Speed Precip Events Conditions
12:00 AM 55.4 °F 42.8 °F 63% 30.32 in 9.0 mi East 8.1 mph - N/A   Clear
1:00 AM 53.6 °F 42.8 °F 67% 30.33 in 9.0 mi East 11.5 mph - N/A   Clear
2:00 AM 52 °F 43 °F 63% 30.32 in - East 9.2 mph - -  
2:00 AM 51.8 °F 42.8 °F 71% 30.33 in 9.0 mi East 10.4 mph - N/A   Clear
3:00 AM 51.8 °F 42.8 °F 71% 30.33 in 9.0 mi East 10.4 mph - N/A   Clear
4:00 AM 50.0 °F 42.8 °F 76% 30.34 in 9.0 mi East 10.4 mph - N/A   Clear
5:00 AM 50 °F 42 °F 64% 30.34 in - ENE 9.2 mph - -  
5:00 AM 50.0 °F 41.0 °F 71% 30.34 in 9.0 mi East 10.4 mph - N/A   Clear
6:00 AM 48.2 °F 41.0 °F 76% 30.35 in 9.0 mi East 12.7 mph - N/A   Clear
7:00 AM 50.0 °F 41.0 °F 71% 30.36 in 9.0 mi ENE 6.9 mph - N/A   Clear
8:00 AM 53 °F 41 °F 53% 30.35 in - ENE 6.9 mph - -  
8:00 AM 53.6 °F 39.2 °F 58% 30.35 in 9.0 mi ENE 6.9 mph - N/A   Clear
9:00 AM 57.2 °F 41.0 °F 55% 30.33 in 9.0 mi East 10.4 mph - N/A   Clear
10:00 AM 62.6 °F 42.8 °F 48% 30.31 in 9.0 mi ENE 6.9 mph - N/A   Clear
11:00 AM 68 °F 40 °F 24% 30.27 in - East 8.1 mph - -  
11:00 AM 68.0 °F 39.2 °F 35% 30.28 in 9.0 mi East 8.1 mph - N/A   Clear
12:00 PM 73.4 °F 37.4 °F 27% 30.24 in 9.0 mi SSE 5.8 mph - N/A   Clear
1:00 PM 77.0 °F 39.2 °F 26% 30.20 in 9.0 mi Variable 3.5 mph - N/A   Clear
2:00 PM 78 °F 36 °F 13% 30.14 in - SSE 4.6 mph - -  
2:00 PM 78.8 °F 35.6 °F 21% 30.16 in 7.0 mi SE 5.8 mph - N/A   Clear
3:00 PM 80.6 °F 37.4 °F 21% 30.13 in 9.0 mi South 6.9 mph - N/A   Clear
4:00 PM 82.4 °F 30.2 °F 15% 30.09 in 9.0 mi Variable 5.8 mph - N/A   Clear
5:00 PM 83 °F 35 °F 10% 30.05 in - WSW 2.3 mph - -  
5:00 PM 82.4 °F 33.8 °F 17% 30.07 in 9.0 mi Variable 3.5 mph - N/A   Clear
6:00 PM 82.4 °F 41.0 °F 23% 30.04 in 9.0 mi Calm Calm - N/A   Clear
7:00 PM 75.2 °F 51.8 °F 44% 30.03 in 9.0 mi Calm Calm - N/A   Clear
8:00 PM 68 °F 41 °F 26% 30.02 in - ENE 1.2 mph - -  
8:00 PM 68.0 °F 41.0 °F 37% 30.04 in 9.0 mi Calm Calm - N/A   Clear
9:00 PM 64.4 °F 41.0 °F 42% 30.07 in 9.0 mi Variable 2.3 mph - N/A   Clear
10:00 PM 60.8 °F 42.8 °F 52% 30.09 in 9.0 mi ENE 4.6 mph - N/A   Clear
11:00 PM 62 °F 39 °F 31% 30.07 in - ENE 8.1 mph - -  
11:00 PM 62.6 °F 39.2 °F 42% 30.09 in 9.0 mi East 9.2 mph - N/A   Clear